sat.trackr.live / text

‹ back to catalog

QUBE

NORAD 60476 · 2024-149J

PAYLOAD ACTIVE UNKNOWN

§ Identity

Operator
Country
GER
Launch date
2024-08-16
Launch site
AFWTR
Launch vehicle
Mass (kg)
RCS (m²)

External: N2YO · Heavens-Above · Gunter

§ Orbital elements

Epoch: 2026-05-25T04:55:48.885024Z

Period
93.14 min
Inclination
97.3772°
Eccentricity
0.0000632
Mean motion
15.45992371 rev/d
Perigee alt
428.0 km
Apogee alt
428.9 km
Semi-major
6,806.6 km
B*
4.7856e-4
RAAN
231.2161°
Arg perigee
350.7443°
Mean anomaly
9.3795°
Rev number
9,891

§ Raw data

QUBE1 60476U 24149J   26145.20542691  .00023286  00000+0  47856-3 0  99932 60476  97.3772 231.2161 0000632 350.7443   9.3795 15.45992371 98919

JSON: /api/v1/satellites/60476 · /tle

For live sub-satellite position, see the globe view (requires WebGL).

§ Visibility from observer

Set your observer location to see the next 7 days of passes ≥ 10°. The values pass through the URL so the page stays shareable.

No JS? Fill the form by hand. The geolocation button needs JavaScript.

§ Radio — SatNOGS DB

ModeDescriptionDownlinkUplink
FSK Mode U - FSK9k6 - Transmitter 435.600 MHz

1 transmitter · refreshed weekly from db.satnogs.org